START_TIME,STEP,MOV.,AL01,t_acc.,AL02,t_acc.,E37,t_acc.,H21,t_acc.
1979-07-27 21:00:33.530 ,0,0,1.,24.0,0.,24.0,10.,24.0,0.,24.0
1979-07-27 21:00:57.530 ,0,1,0.,24.0,0.,24.0,2.,24.0,0.,24.0
1979-07-27 21:01:21.530 ,0,0,0.,24.0,0.,24.0,5.,24.0,0.,24.0
1979-07-27 21:01:45.530 ,1,1,0.,24.0,0.,24.0,10.,24.0,0.,24.0
1979-07-27 21:02:09.530 ,1,0,0.,24.0,0.,24.0,3.,24.0,0.,24.0
1979-07-27 21:02:33.530 ,2,1,0.,24.0,0.,24.0,4.,24.0,0.,24.0
1979-07-27 21:02:57.530 ,2,0,0.,24.0,0.,24.0,3.,24.0,0.,24.0
1979-07-27 21:03:21.530 ,3,1,0.,24.0,0.,24.0,2.,24.0,0.,24.0
1979-07-27 21:03:45.530 ,3,0,0.,24.0,0.,24.0,1.,24.0,0.,24.0
1979-07-27 21:04:09.530 ,4,1,0.,24.0,0.,24.0,8.,24.0,0.,24.0
1979-07-27 21:04:33.530 ,4,0,2.,24.0,0.,24.0,5.,24.0,0.,24.0
1979-07-27 21:04:57.530 ,5,1,0.,24.0,0.,24.0,2.,24.0,0.,24.0
1979-07-27 21:05:21.530 ,5,0,0.,24.0,0.,24.0,9.,24.0,0.,24.0
1979-07-27 21:05:45.530 ,6,1,0.,24.0,0.,24.0,3.,24.0,0.,24.0
1979-07-27 21:06:09.530 ,6,0,0.,24.0,0.,24.0,5.,24.0,0.,24.0
1979-07-27 21:06:33.530 ,7,0,10.,24.0,0.,24.0,8.,24.0,0.,24.0
1979-07-27 21:06:57.530 ,7,0,30.,24.0,0.,24.0,2.,24.0,0.,24.0
1979-07-27 21:07:21.530 ,5,1,9.,24.0,0.,24.0,7.,24.0,0.,24.0
1979-07-27 21:07:45.530 ,1,1,0.,24.0,0.,24.0,3.,24.0,0.,24.0
1979-07-27 21:08:09.530 ,2,1,0.,24.0,0.,24.0,1.,24.0,0.,24.0
1979-07-27 21:08:33.530 ,6,1,1.,24.0,0.,24.0,5.,24.0,0.,24.0
1979-07-27 21:08:57.530 ,5,1,20.,24.0,0.,24.0,5.,24.0,0.,24.0
1979-07-27 21:09:21.530 ,1,1,1.,24.0,1.,24.0,4.,24.0,0.,24.0
1979-07-27 21:09:45.530 ,2,1,0.,24.0,0.,24.0,1.,24.0,0.,24.0
1979-07-27 21:10:09.530 ,6,1,1.,24.0,0.,24.0,5.,24.0,0.,24.0
1979-07-27 21:10:33.530 ,5,1,13.,24.0,0.,24.0,6.,24.0,0.,24.0
1979-07-27 21:10:57.530 ,1,1,0.,24.0,1.,24.0,3.,24.0,0.,24.0
1979-07-27 21:11:21.530 ,2,1,0.,24.0,0.,24.0,4.,24.0,0.,24.0
1979-07-27 21:11:45.530 ,6,1,1.,24.0,0.,24.0,3.,24.0,0.,24.0
1979-07-27 21:12:09.530 ,5,1,18.,24.0,0.,24.0,7.,24.0,0.,24.0
1979-07-27 21:12:33.530 ,1,1,0.,24.0,0.,24.0,3.,24.0,0.,24.0
1979-07-27 21:12:57.530 ,2,1,0.,24.0,0.,24.0,3.,24.0,0.,24.0
1979-07-27 21:13:21.530 ,6,1,0.,24.0,0.,24.0,7.,24.0,0.,24.0
1979-07-27 21:13:45.530 ,5,1,17.,24.0,0.,24.0,2.,24.0,0.,24.0
1979-07-27 21:14:09.530 ,1,1,0.,24.0,0.,24.0,5.,24.0,0.,24.0
1979-07-27 21:14:33.530 ,2,1,0.,24.0,0.,24.0,6.,24.0,0.,24.0
1979-07-27 21:14:57.530 ,6,1,0.,24.0,0.,24.0,3.,24.0,0.,24.0
1979-07-27 21:15:21.530 ,5,1,15.,24.0,0.,24.0,5.,24.0,0.,24.0
1979-07-27 21:15:45.530 ,1,1,1.,24.0,0.,24.0,4.,24.0,0.,24.0
1979-07-27 21:16:09.530 ,2,1,0.,24.0,0.,24.0,4.,24.0,0.,24.0
1979-07-27 21:16:33.530 ,6,1,1.,24.0,0.,24.0,1.,24.0,0.,24.0
1979-07-27 21:16:57.530 ,5,1,11.,24.0,0.,24.0,4.,24.0,0.,24.0
1979-07-27 21:17:21.530 ,1,1,0.,24.0,0.,24.0,5.,24.0,0.,24.0
1979-07-27 21:17:45.530 ,0,0,0.,24.0,0.,24.0,4.,24.0,0.,24.0
1979-07-27 21:18:09.530 ,0,0,2.,24.0,0.,24.0,2.,24.0,0.,24.0
1979-07-27 21:18:33.530 ,5,1,13.,24.0,0.,24.0,1.,24.0,0.,24.0
1979-07-27 21:18:57.530 ,5,0,0.,24.0,0.,24.0,4.,24.0,0.,24.0
1979-07-27 21:19:21.530 ,4,1,1.,24.0,0.,24.0,4.,24.0,0.,24.0
1979-07-27 21:19:45.530 ,4,0,0.,24.0,0.,24.0,5.,24.0,0.,24.0
1979-07-27 21:20:09.530 ,3,1,0.,24.0,0.,24.0,4.,24.0,0.,24.0
1979-07-27 21:20:33.530 ,3,0,0.,24.0,0.,24.0,4.,24.0,0.,24.0
1979-07-27 21:20:57.530 ,2,1,0.,24.0,0.,24.0,3.,24.0,0.,24.0
1979-07-27 21:21:21.530 ,2,0,0.,24.0,1.,24.0,1.,24.0,0.,24.0
1979-07-27 21:21:45.530 ,1,1,2.,24.0,0.,24.0,6.,24.0,0.,24.0
1979-07-27 21:22:09.530 ,1,0,0.,24.0,0.,24.0,2.,24.0,0.,24.0
1979-07-27 21:22:33.530 ,0,1,0.,24.0,0.,24.0,1.,24.0,0.,24.0
1979-07-27 21:22:57.530 ,0,0,0.,24.0,0.,24.0,4.,24.0,0.,24.0
1979-07-27 21:23:21.530 ,0,1,0.,24.0,0.,24.0,3.,24.0,0.,24.0
1979-07-27 21:23:45.530 ,0,0,1.,24.0,0.,24.0,2.,24.0,0.,24.0
1979-07-27 21:24:09.530 ,1,1,2.,24.0,1.,24.0,4.,24.0,0.,24.0
1979-07-27 21:24:33.530 ,1,0,0.,24.0,0.,24.0,0.,24.0,0.,24.0
1979-07-27 21:24:57.530 ,2,1,1.,24.0,0.,24.0,4.,24.0,0.,24.0
1979-07-27 21:25:21.530 ,2,0,0.,24.0,0.,24.0,1.,24.0,0.,24.0
1979-07-27 21:25:45.530 ,3,1,0.,24.0,0.,24.0,9.,24.0,0.,24.0
1979-07-27 21:26:09.530 ,3,0,0.,24.0,0.,24.0,3.,24.0,0.,24.0
1979-07-27 21:26:33.530 ,4,1,0.,24.0,0.,24.0,2.,24.0,0.,24.0
1979-07-27 21:26:57.530 ,4,0,1.,24.0,0.,24.0,10.,24.0,0.,24.0
1979-07-27 21:27:21.530 ,5,1,0.,24.0,0.,24.0,4.,24.0,0.,24.0
1979-07-27 21:27:45.530 ,5,0,0.,24.0,0.,24.0,6.,24.0,0.,24.0
1979-07-27 21:28:09.530 ,6,1,0.,24.0,0.,24.0,7.,24.0,0.,24.0
1979-07-27 21:28:33.530 ,6,0,0.,24.0,0.,24.0,4.,24.0,0.,24.0
1979-07-27 21:28:57.530 ,7,1,5.,24.0,0.,24.0,3.,24.0,0.,24.0
1979-07-27 21:29:21.530 ,7,0,31.,24.0,0.,24.0,4.,24.0,0.,24.0
1979-07-27 21:29:45.530 ,7,1,31.,24.0,0.,24.0,6.,24.0,0.,24.0
1979-07-27 21:30:09.530 ,7,0,24.,24.0,0.,24.0,6.,24.0,0.,24.0
1979-07-27 21:30:33.530 ,6,1,21.,24.0,0.,24.0,5.,24.0,0.,24.0
1979-07-27 21:30:57.530 ,6,0,0.,24.0,0.,24.0,4.,24.0,0.,24.0
1979-07-27 21:31:21.530 ,5,1,0.,24.0,0.,24.0,4.,24.0,0.,24.0
1979-07-27 21:31:45.530 ,5,0,0.,24.0,0.,24.0,5.,24.0,0.,24.0
1979-07-27 21:32:09.530 ,4,1,0.,24.0,0.,24.0,3.,24.0,0.,24.0
1979-07-27 21:32:33.530 ,4,0,0.,24.0,0.,24.0,2.,24.0,0.,24.0
1979-07-27 21:32:57.530 ,3,1,0.,24.0,0.,24.0,1.,24.0,0.,24.0
1979-07-27 21:33:21.530 ,3,0,1.,24.0,0.,24.0,3.,24.0,0.,24.0
1979-07-27 21:33:45.530 ,2,1,1.,24.0,0.,24.0,1.,24.0,0.,24.0
1979-07-27 21:34:09.530 ,2,0,0.,24.0,0.,24.0,4.,24.0,0.,24.0
1979-07-27 21:34:33.530 ,1,1,0.,24.0,0.,24.0,8.,24.0,0.,24.0
1979-07-27 21:34:57.530 ,1,0,1.,24.0,0.,24.0,1.,24.0,0.,24.0
1979-07-27 21:35:21.530 ,0,1,0.,24.0,0.,24.0,4.,24.0,0.,24.0
1979-07-27 21:35:45.530 ,0,0,0.,24.0,0.,24.0,8.,24.0,0.,24.0
1979-07-27 21:36:09.530 ,0,1,1.,24.0,0.,24.0,1.,24.0,0.,24.0
1979-07-27 21:36:33.530 ,0,0,1.,24.0,0.,24.0,5.,24.0,0.,24.0
1979-07-27 21:36:57.530 ,1,1,0.,24.0,0.,24.0,2.,24.0,0.,24.0
1979-07-27 21:37:21.530 ,1,0,0.,24.0,0.,24.0,4.,24.0,0.,24.0
1979-07-27 21:37:45.530 ,2,1,4.,24.0,0.,24.0,1.,24.0,0.,24.0
1979-07-27 21:38:09.530 ,2,0,0.,24.0,0.,24.0,3.,24.0,0.,24.0
1979-07-27 21:38:33.530 ,3,1,0.,24.0,0.,24.0,8.,24.0,0.,24.0
1979-07-27 21:38:57.530 ,3,0,0.,24.0,0.,24.0,4.,24.0,0.,24.0
1979-07-27 21:39:21.530 ,4,1,1.,24.0,2.,24.0,2.,24.0,0.,24.0
1979-07-27 21:39:45.530 ,4,0,2.,24.0,0.,24.0,3.,24.0,0.,24.0
1979-07-27 21:40:09.530 ,5,1,0.,24.0,0.,24.0,3.,24.0,0.,24.0
1979-07-27 21:40:33.530 ,5,0,0.,24.0,0.,24.0,3.,24.0,0.,24.0
1979-07-27 21:40:57.530 ,6,1,0.,24.0,0.,24.0,3.,24.0,0.,24.0
1979-07-27 21:41:21.530 ,6,0,0.,24.0,0.,24.0,3.,24.0,0.,24.0
1979-07-27 21:41:45.530 ,7,1,12.,24.0,0.,24.0,6.,24.0,0.,24.0
1979-07-27 21:42:09.530 ,7,0,30.,24.0,0.,24.0,8.,24.0,0.,24.0
1979-07-27 21:42:33.530 ,7,1,29.,24.0,0.,24.0,5.,24.0,0.,24.0
1979-07-27 21:42:57.530 ,7,0,28.,24.0,0.,24.0,11.,24.0,0.,24.0
1979-07-27 21:43:21.530 ,6,1,28.,24.0,0.,24.0,6.,24.0,0.,24.0
1979-07-27 21:43:45.530 ,6,0,0.,24.0,0.,24.0,6.,24.0,0.,24.0
1979-07-27 21:44:09.530 ,5,1,0.,24.0,0.,24.0,2.,24.0,0.,24.0
1979-07-27 21:44:33.530 ,5,0,0.,24.0,0.,24.0,2.,24.0,0.,24.0
1979-07-27 21:44:57.530 ,4,1,0.,24.0,0.,24.0,4.,24.0,0.,24.0
1979-07-27 21:45:21.530 ,4,0,0.,24.0,0.,24.0,5.,24.0,0.,24.0
1979-07-27 21:45:45.530 ,3,1,0.,24.0,0.,24.0,5.,24.0,0.,24.0
1979-07-27 21:46:09.530 ,3,0,0.,24.0,0.,24.0,5.,24.0,0.,24.0
1979-07-27 21:46:33.530 ,2,1,0.,24.0,0.,24.0,2.,24.0,0.,24.0
1979-07-27 21:46:57.530 ,2,0,0.,24.0,0.,24.0,2.,24.0,0.,24.0
1979-07-27 21:47:21.530 ,1,1,0.,24.0,0.,24.0,0.,24.0,0.,24.0
1979-07-27 21:47:45.530 ,1,0,0.,24.0,0.,24.0,3.,24.0,0.,24.0
1979-07-27 21:48:09.530 ,0,1,0.,24.0,0.,24.0,2.,24.0,0.,24.0
1979-07-27 21:48:33.530 ,0,0,0.,24.0,0.,24.0,2.,24.0,0.,24.0
1979-07-27 21:48:57.530 ,0,1,1.,24.0,0.,24.0,0.,24.0,0.,24.0
1979-07-27 21:49:21.530 ,0,0,0.,24.0,0.,24.0,5.,24.0,0.,24.0
1979-07-27 21:49:45.530 ,1,1,0.,24.0,0.,24.0,12.,24.0,0.,24.0
1979-07-27 21:50:09.530 ,1,0,0.,24.0,0.,24.0,0.,24.0,0.,24.0
1979-07-27 21:50:33.530 ,2,1,0.,24.0,0.,24.0,3.,24.0,0.,24.0
1979-07-27 21:50:57.530 ,2,0,1.,24.0,0.,24.0,5.,24.0,0.,24.0
1979-07-27 21:51:21.530 ,3,1,0.,24.0,0.,24.0,0.,24.0,0.,24.0
1979-07-27 21:51:45.530 ,3,0,0.,24.0,0.,24.0,0.,24.0,0.,24.0
1979-07-27 21:52:09.530 ,4,1,0.,24.0,0.,24.0,7.,24.0,0.,24.0
1979-07-27 21:52:33.530 ,4,0,1.,24.0,0.,24.0,7.,24.0,0.,24.0
1979-07-27 21:52:57.530 ,5,1,0.,24.0,0.,24.0,3.,24.0,0.,24.0
1979-07-27 21:53:21.530 ,5,0,0.,24.0,0.,24.0,4.,24.0,0.,24.0
1979-07-27 21:53:45.530 ,6,1,0.,24.0,0.,24.0,5.,24.0,0.,24.0
1979-07-27 21:54:09.530 ,6,0,0.,24.0,0.,24.0,3.,24.0,0.,24.0
1979-07-27 21:54:33.530 ,7,0,7.,24.0,0.,24.0,4.,24.0,0.,24.0
1979-07-27 21:54:57.530 ,7,0,25.,24.0,0.,24.0,2.,24.0,0.,24.0
1979-07-27 21:55:21.530 ,5,1,13.,24.0,0.,24.0,2.,24.0,0.,24.0
1979-07-27 21:55:45.530 ,1,1,0.,24.0,0.,24.0,4.,24.0,0.,24.0
1979-07-27 21:56:09.530 ,2,1,0.,24.0,0.,24.0,5.,24.0,0.,24.0
1979-07-27 21:56:33.530 ,6,1,0.,24.0,0.,24.0,3.,24.0,0.,24.0
1979-07-27 21:56:57.530 ,5,1,17.,24.0,0.,24.0,6.,24.0,0.,24.0
1979-07-27 21:57:21.530 ,1,1,1.,24.0,1.,24.0,1.,24.0,0.,24.0
1979-07-27 21:57:45.530 ,2,1,0.,24.0,0.,24.0,1.,24.0,0.,24.0
1979-07-27 21:58:09.530 ,6,1,0.,24.0,0.,24.0,6.,24.0,0.,24.0
1979-07-27 21:58:33.530 ,5,1,17.,24.0,0.,24.0,5.,24.0,0.,24.0
1979-07-27 21:58:57.530 ,1,1,0.,24.0,0.,24.0,4.,24.0,0.,24.0
1979-07-27 21:59:21.530 ,2,1,0.,24.0,1.,24.0,1.,24.0,0.,24.0
1979-07-27 21:59:45.530 ,6,1,0.,24.0,0.,24.0,2.,24.0,0.,24.0
1979-07-27 22:00:09.530 ,5,1,14.,24.0,0.,24.0,1.,24.0,0.,24.0
1979-07-27 22:00:33.530 ,1,1,0.,24.0,1.,24.0,2.,24.0,0.,24.0
1979-07-27 22:00:57.530 ,2,1,0.,24.0,0.,24.0,4.,24.0,0.,24.0
1979-07-27 22:01:21.530 ,6,1,1.,24.0,0.,24.0,3.,24.0,0.,24.0
1979-07-27 22:01:45.530 ,5,1,8.,24.0,0.,24.0,2.,24.0,0.,24.0
1979-07-27 22:02:09.530 ,1,1,0.,24.0,0.,24.0,6.,24.0,0.,24.0
1979-07-27 22:02:33.530 ,2,1,0.,24.0,0.,24.0,1.,24.0,0.,24.0
1979-07-27 22:02:57.530 ,6,1,0.,24.0,0.,24.0,0.,24.0,0.,24.0
1979-07-27 22:03:21.530 ,5,1,15.,24.0,0.,24.0,1.,24.0,0.,24.0
1979-07-27 22:03:45.530 ,1,1,0.,24.0,0.,24.0,0.,24.0,0.,24.0
1979-07-27 22:04:09.530 ,2,1,1.,24.0,0.,24.0,3.,24.0,0.,24.0
1979-07-27 22:04:33.530 ,6,1,0.,24.0,1.,24.0,3.,24.0,0.,24.0
1979-07-27 22:04:57.530 ,5,1,17.,24.0,0.,24.0,6.,24.0,0.,24.0
1979-07-27 22:05:21.530 ,1,1,1.,24.0,0.,24.0,4.,24.0,0.,24.0
1979-07-27 22:05:45.530 ,0,0,0.,24.0,0.,24.0,3.,24.0,0.,24.0
1979-07-27 22:06:09.530 ,0,0,0.,24.0,0.,24.0,4.,24.0,0.,24.0
1979-07-27 22:06:33.530 ,5,1,16.,24.0,0.,24.0,1.,24.0,0.,24.0
1979-07-27 22:06:57.530 ,5,0,0.,24.0,0.,24.0,2.,24.0,0.,24.0
1979-07-27 22:07:21.530 ,4,1,0.,24.0,0.,24.0,2.,24.0,0.,24.0
1979-07-27 22:07:45.530 ,4,0,0.,24.0,0.,24.0,4.,24.0,0.,24.0
1979-07-27 22:08:09.530 ,3,1,0.,24.0,0.,24.0,3.,24.0,0.,24.0
1979-07-27 22:08:33.530 ,3,0,0.,24.0,0.,24.0,1.,24.0,0.,24.0
1979-07-27 22:08:57.530 ,2,1,0.,24.0,0.,24.0,1.,24.0,0.,24.0
1979-07-27 22:09:21.530 ,2,0,1.,24.0,0.,24.0,2.,24.0,0.,24.0
1979-07-27 22:09:45.530 ,1,1,1.,24.0,0.,24.0,3.,24.0,0.,24.0
1979-07-27 22:10:09.530 ,1,0,0.,24.0,0.,24.0,0.,24.0,0.,24.0
1979-07-27 22:10:33.530 ,0,1,0.,24.0,0.,24.0,2.,24.0,0.,24.0
1979-07-27 22:10:57.530 ,0,0,0.,24.0,0.,24.0,4.,24.0,0.,24.0
1979-07-27 22:11:21.530 ,0,1,0.,24.0,0.,24.0,5.,24.0,0.,24.0
1979-07-27 22:11:45.530 ,0,0,0.,24.0,0.,24.0,4.,24.0,0.,24.0
1979-07-27 22:12:09.530 ,1,1,0.,24.0,0.,24.0,6.,24.0,0.,24.0
1979-07-27 22:12:33.530 ,1,0,0.,24.0,0.,24.0,5.,24.0,0.,24.0
1979-07-27 22:12:57.530 ,2,1,0.,24.0,1.,24.0,3.,24.0,0.,24.0
1979-07-27 22:13:21.530 ,2,0,2.,24.0,0.,24.0,1.,24.0,0.,24.0
1979-07-27 22:13:45.530 ,3,1,0.,24.0,0.,24.0,1.,24.0,0.,24.0
1979-07-27 22:14:09.530 ,3,0,0.,24.0,0.,24.0,3.,24.0,0.,24.0
1979-07-27 22:14:33.530 ,4,1,0.,24.0,0.,24.0,1.,24.0,0.,24.0
1979-07-27 22:14:57.530 ,4,0,0.,24.0,0.,24.0,4.,24.0,0.,24.0
1979-07-27 22:15:21.530 ,5,1,0.,24.0,0.,24.0,1.,24.0,0.,24.0
1979-07-27 22:15:45.530 ,5,0,0.,24.0,1.,24.0,3.,24.0,0.,24.0
1979-07-27 22:16:09.530 ,6,1,0.,24.0,0.,24.0,1.,24.0,0.,24.0
1979-07-27 22:16:33.530 ,6,0,0.,24.0,0.,24.0,2.,24.0,0.,24.0
1979-07-27 22:16:57.530 ,7,1,10.,24.0,0.,24.0,3.,24.0,0.,24.0
1979-07-27 22:17:21.530 ,7,0,35.,24.0,0.,24.0,0.,24.0,0.,24.0
1979-07-27 22:17:45.530 ,7,1,38.,24.0,0.,24.0,6.,24.0,0.,24.0
1979-07-27 22:18:09.530 ,7,0,33.,24.0,0.,24.0,2.,24.0,0.,24.0
1979-07-27 22:18:33.530 ,6,1,21.,24.0,0.,24.0,2.,24.0,0.,24.0
1979-07-27 22:18:57.530 ,6,0,0.,24.0,0.,24.0,3.,24.0,0.,24.0
1979-07-27 22:19:21.530 ,5,1,0.,24.0,0.,24.0,2.,24.0,0.,24.0
1979-07-27 22:19:45.530 ,5,0,0.,24.0,0.,24.0,1.,24.0,0.,24.0
1979-07-27 22:20:09.530 ,4,1,0.,24.0,0.,24.0,3.,24.0,0.,24.0
1979-07-27 22:20:33.530 ,4,0,1.,24.0,0.,24.0,0.,24.0,0.,24.0
1979-07-27 22:20:57.530 ,3,1,0.,24.0,0.,24.0,1.,24.0,0.,24.0
1979-07-27 22:21:21.530 ,3,0,0.,24.0,0.,24.0,1.,24.0,0.,24.0
1979-07-27 22:21:45.530 ,2,1,0.,24.0,0.,24.0,3.,24.0,0.,24.0
1979-07-27 22:22:09.530 ,2,0,0.,24.0,0.,24.0,0.,24.0,0.,24.0
1979-07-27 22:22:33.530 ,1,1,0.,24.0,0.,24.0,2.,24.0,0.,24.0
1979-07-27 22:22:57.530 ,1,0,0.,24.0,0.,24.0,3.,24.0,0.,24.0
1979-07-27 22:23:21.530 ,0,1,0.,24.0,0.,24.0,1.,24.0,0.,24.0
1979-07-27 22:23:45.530 ,0,0,0.,24.0,0.,24.0,4.,24.0,0.,24.0
1979-07-27 22:24:09.530 ,0,1,0.,24.0,0.,24.0,4.,24.0,0.,24.0
1979-07-27 22:24:33.530 ,0,0,0.,24.0,0.,24.0,3.,24.0,0.,24.0
1979-07-27 22:24:57.530 ,1,1,0.,24.0,0.,24.0,3.,24.0,0.,24.0
1979-07-27 22:25:21.530 ,1,0,0.,24.0,0.,24.0,3.,24.0,0.,24.0
1979-07-27 22:25:45.530 ,2,1,0.,24.0,0.,24.0,2.,24.0,0.,24.0
1979-07-27 22:26:09.530 ,2,0,2.,24.0,0.,24.0,6.,24.0,0.,24.0
1979-07-27 22:26:33.530 ,3,1,0.,24.0,0.,24.0,4.,24.0,0.,24.0
1979-07-27 22:26:57.530 ,3,0,0.,24.0,0.,24.0,4.,24.0,0.,24.0
1979-07-27 22:27:21.530 ,4,1,0.,24.0,0.,24.0,3.,24.0,0.,24.0
1979-07-27 22:27:45.530 ,4,0,0.,24.0,0.,24.0,6.,24.0,0.,24.0
1979-07-27 22:28:09.530 ,5,1,1.,24.0,0.,24.0,1.,24.0,0.,24.0
1979-07-27 22:28:33.530 ,5,0,0.,24.0,0.,24.0,3.,24.0,0.,24.0
1979-07-27 22:28:57.530 ,6,1,0.,24.0,0.,24.0,7.,24.0,0.,24.0
1979-07-27 22:29:21.530 ,6,0,0.,24.0,0.,24.0,1.,24.0,0.,24.0
1979-07-27 22:29:45.530 ,7,1,11.,24.0,0.,24.0,3.,24.0,0.,24.0
1979-07-27 22:30:09.530 ,7,0,36.,24.0,0.,24.0,3.,24.0,0.,24.0
1979-07-27 22:30:33.530 ,7,1,40.,24.0,0.,24.0,8.,24.0,0.,24.0
1979-07-27 22:30:57.530 ,7,0,27.,24.0,0.,24.0,2.,24.0,0.,24.0
1979-07-27 22:31:21.530 ,6,1,20.,24.0,0.,24.0,3.,24.0,0.,24.0
1979-07-27 22:31:45.530 ,6,0,0.,24.0,0.,24.0,5.,24.0,0.,24.0
1979-07-27 22:32:09.530 ,5,1,0.,24.0,0.,24.0,1.,24.0,0.,24.0
1979-07-27 22:32:33.530 ,5,0,0.,24.0,0.,24.0,1.,24.0,0.,24.0
1979-07-27 22:32:57.530 ,4,1,0.,24.0,0.,24.0,5.,24.0,0.,24.0
1979-07-27 22:33:21.530 ,4,0,0.,24.0,0.,24.0,4.,24.0,0.,24.0
1979-07-27 22:33:45.530 ,3,1,0.,24.0,0.,24.0,3.,24.0,0.,24.0
1979-07-27 22:34:09.530 ,3,0,1.,24.0,0.,24.0,1.,24.0,0.,24.0
1979-07-27 22:34:33.530 ,2,1,0.,24.0,0.,24.0,0.,24.0,0.,24.0
1979-07-27 22:34:57.530 ,2,0,1.,24.0,0.,24.0,5.,24.0,0.,24.0
1979-07-27 22:35:21.530 ,1,1,1.,24.0,0.,24.0,7.,24.0,0.,24.0
1979-07-27 22:35:45.530 ,1,0,0.,24.0,1.,24.0,3.,24.0,0.,24.0
1979-07-27 22:36:09.530 ,0,1,0.,24.0,0.,24.0,2.,24.0,0.,24.0
1979-07-27 22:36:33.530 ,0,0,1.,24.0,0.,24.0,3.,24.0,0.,24.0
1979-07-27 22:36:57.530 ,0,1,1.,24.0,0.,24.0,3.,24.0,0.,24.0
1979-07-27 22:37:21.530 ,0,0,0.,24.0,0.,24.0,1.,24.0,0.,24.0
1979-07-27 22:37:45.530 ,1,1,2.,24.0,0.,24.0,1.,24.0,0.,24.0
1979-07-27 22:38:09.530 ,1,0,0.,24.0,0.,24.0,4.,24.0,0.,24.0
1979-07-27 22:38:33.530 ,2,1,0.,24.0,0.,24.0,2.,24.0,0.,24.0
1979-07-27 22:38:57.530 ,2,0,0.,24.0,0.,24.0,3.,24.0,0.,24.0
1979-07-27 22:39:21.530 ,3,1,1.,24.0,1.,24.0,2.,24.0,0.,24.0
1979-07-27 22:39:45.530 ,3,0,1.,24.0,0.,24.0,1.,24.0,0.,24.0
1979-07-27 22:40:09.530 ,4,1,1.,24.0,0.,24.0,1.,24.0,0.,24.0
1979-07-27 22:40:33.530 ,4,0,1.,24.0,0.,24.0,3.,24.0,0.,24.0
1979-07-27 22:40:57.530 ,5,1,0.,24.0,0.,24.0,6.,24.0,0.,24.0
1979-07-27 22:41:21.530 ,5,0,0.,24.0,0.,24.0,6.,24.0,0.,24.0
1979-07-27 22:41:45.530 ,6,1,0.,24.0,0.,24.0,2.,24.0,0.,24.0
1979-07-27 22:42:09.530 ,6,0,0.,24.0,0.,24.0,6.,24.0,0.,24.0
1979-07-27 22:42:33.530 ,7,0,10.,24.0,0.,24.0,4.,24.0,0.,24.0
1979-07-27 22:42:57.530 ,7,0,37.,24.0,0.,24.0,2.,24.0,0.,24.0
1979-07-27 22:43:21.530 ,5,1,13.,24.0,0.,24.0,4.,24.0,0.,24.0
1979-07-27 22:43:45.530 ,1,1,2.,24.0,0.,24.0,1.,24.0,0.,24.0
1979-07-27 22:44:09.530 ,2,1,0.,24.0,0.,24.0,5.,24.0,0.,24.0
1979-07-27 22:44:33.530 ,6,1,0.,24.0,0.,24.0,4.,24.0,0.,24.0
1979-07-27 22:44:57.530 ,5,1,18.,24.0,0.,24.0,4.,24.0,0.,24.0
1979-07-27 22:45:21.530 ,1,1,0.,24.0,1.,24.0,3.,24.0,0.,24.0
1979-07-27 22:45:45.530 ,2,1,1.,24.0,0.,24.0,5.,24.0,0.,24.0
1979-07-27 22:46:09.530 ,6,1,1.,24.0,0.,24.0,3.,24.0,0.,24.0
1979-07-27 22:46:33.530 ,5,1,17.,24.0,0.,24.0,6.,24.0,0.,24.0
1979-07-27 22:46:57.530 ,1,1,1.,24.0,0.,24.0,4.,24.0,0.,24.0
1979-07-27 22:47:21.530 ,2,1,0.,24.0,0.,24.0,6.,24.0,0.,24.0
1979-07-27 22:47:45.530 ,6,1,0.,24.0,0.,24.0,2.,24.0,0.,24.0
1979-07-27 22:48:09.530 ,5,1,19.,24.0,0.,24.0,8.,24.0,0.,24.0
1979-07-27 22:48:33.530 ,1,1,1.,24.0,0.,24.0,2.,24.0,0.,24.0
1979-07-27 22:48:57.530 ,2,1,1.,24.0,0.,24.0,1.,24.0,0.,24.0
1979-07-27 22:49:21.530 ,6,1,0.,24.0,0.,24.0,3.,24.0,0.,24.0
1979-07-27 22:49:45.530 ,5,1,17.,24.0,0.,24.0,2.,24.0,0.,24.0
1979-07-27 22:50:09.530 ,1,1,1.,24.0,0.,24.0,1.,24.0,0.,24.0
1979-07-27 22:50:33.530 ,2,1,0.,24.0,0.,24.0,4.,24.0,0.,24.0
1979-07-27 22:50:57.530 ,6,1,0.,24.0,0.,24.0,1.,24.0,0.,24.0
1979-07-27 22:51:21.530 ,5,1,13.,24.0,0.,24.0,6.,24.0,0.,24.0
1979-07-27 22:51:45.530 ,1,1,0.,24.0,0.,24.0,3.,24.0,0.,24.0
1979-07-27 22:52:09.530 ,2,1,0.,24.0,0.,24.0,9.,24.0,0.,24.0
1979-07-27 22:52:33.530 ,6,1,0.,24.0,0.,24.0,4.,24.0,0.,24.0
1979-07-27 22:52:57.530 ,5,1,10.,24.0,0.,24.0,3.,24.0,0.,24.0
1979-07-27 22:53:21.530 ,1,1,0.,24.0,0.,24.0,4.,24.0,0.,24.0
1979-07-27 22:53:45.530 ,0,0,0.,24.0,1.,24.0,3.,24.0,0.,24.0
1979-07-27 22:54:09.530 ,0,0,0.,24.0,0.,24.0,2.,24.0,0.,24.0
1979-07-27 22:54:33.530 ,5,1,11.,24.0,0.,24.0,0.,24.0,0.,24.0
1979-07-27 22:54:57.530 ,5,0,0.,24.0,1.,24.0,3.,24.0,0.,24.0
1979-07-27 22:55:21.530 ,4,1,0.,24.0,0.,24.0,3.,24.0,0.,24.0
1979-07-27 22:55:45.530 ,4,0,0.,24.0,0.,24.0,2.,24.0,0.,24.0
1979-07-27 22:56:09.530 ,3,1,0.,24.0,0.,24.0,5.,24.0,0.,24.0
1979-07-27 22:56:33.530 ,3,0,2.,24.0,0.,24.0,1.,24.0,0.,24.0
1979-07-27 22:56:57.530 ,2,1,1.,24.0,1.,24.0,3.,24.0,0.,24.0
1979-07-27 22:57:21.530 ,2,0,0.,24.0,0.,24.0,6.,24.0,0.,24.0
1979-07-27 22:57:45.530 ,1,1,0.,24.0,0.,24.0,5.,24.0,0.,24.0
1979-07-27 22:58:09.530 ,1,0,0.,24.0,0.,24.0,1.,24.0,0.,24.0
1979-07-27 22:58:33.530 ,0,1,0.,24.0,0.,24.0,2.,24.0,0.,24.0
1979-07-27 22:58:57.530 ,0,0,0.,24.0,0.,24.0,4.,24.0,0.,24.0
1979-07-27 22:59:21.530 ,0,1,0.,24.0,0.,24.0,0.,24.0,0.,24.0
1979-07-27 22:59:45.530 ,0,0,0.,24.0,0.,24.0,2.,24.0,0.,24.0
1979-07-27 23:00:09.530 ,1,1,0.,24.0,0.,24.0,8.,24.0,0.,24.0
1979-07-27 23:00:33.530 ,1,0,0.,24.0,0.,24.0,2.,24.0,0.,24.0
1979-07-27 23:00:57.530 ,2,1,0.,24.0,0.,24.0,2.,24.0,0.,24.0
1979-07-27 23:01:21.530 ,2,0,0.,24.0,0.,24.0,4.,24.0,0.,24.0
1979-07-27 23:01:45.530 ,3,1,1.,24.0,0.,24.0,2.,24.0,0.,24.0
1979-07-27 23:02:09.520 ,3,0,4.,24.0,0.,24.0,3.,24.0,0.,24.0
1979-07-27 23:02:33.530 ,4,1,2.,24.0,0.,24.0,3.,24.0,0.,24.0
1979-07-27 23:02:57.530 ,4,0,0.,24.0,0.,24.0,4.,24.0,0.,24.0
1979-07-27 23:03:21.530 ,5,1,1.,24.0,0.,24.0,4.,24.0,0.,24.0
1979-07-27 23:03:45.530 ,5,0,0.,24.0,0.,24.0,1.,24.0,0.,24.0
1979-07-27 23:04:09.530 ,6,1,0.,24.0,0.,24.0,4.,24.0,0.,24.0
1979-07-27 23:04:33.530 ,6,0,0.,24.0,0.,24.0,0.,24.0,0.,24.0
1979-07-27 23:04:57.530 ,7,1,7.,24.0,0.,24.0,5.,24.0,0.,24.0
1979-07-27 23:05:21.530 ,7,0,29.,24.0,0.,24.0,7.,24.0,0.,24.0
1979-07-27 23:05:45.530 ,7,1,30.,24.0,0.,24.0,3.,24.0,0.,24.0
1979-07-27 23:06:09.520 ,7,0,24.,24.0,0.,24.0,2.,24.0,0.,24.0
1979-07-27 23:06:33.530 ,6,1,26.,24.0,0.,24.0,4.,24.0,0.,24.0
1979-07-27 23:06:57.530 ,0,0,0.,24.0,0.,24.0,4.,24.0,0.,24.0
1979-07-27 23:08:09.520 ,0,0,0.,24.0,0.,24.0,4.,24.0,0.,24.0
1979-07-27 23:08:33.530 ,0,0,1.,24.0,0.,24.0,3.,24.0,0.,24.0
1979-07-27 23:08:57.520 ,3,1,2.,24.0,0.,24.0,3.,24.0,0.,24.0
1979-07-27 23:09:21.520 ,3,0,1.,24.0,0.,24.0,2.,24.0,0.,24.0
1979-07-27 23:09:45.520 ,2,1,2.,24.0,0.,24.0,4.,24.0,0.,24.0
1979-07-27 23:10:09.520 ,2,0,0.,24.0,0.,24.0,3.,24.0,0.,24.0
1979-07-27 23:10:33.520 ,1,1,0.,24.0,0.,24.0,2.,24.0,0.,24.0
1979-07-27 23:10:57.520 ,1,0,0.,24.0,0.,24.0,4.,24.0,0.,24.0
1979-07-27 23:11:21.520 ,0,1,1.,24.0,0.,24.0,3.,24.0,0.,24.0
1979-07-27 23:11:45.520 ,0,0,0.,24.0,0.,24.0,2.,24.0,0.,24.0
1979-07-27 23:12:09.520 ,0,1,1.,24.0,0.,24.0,8.,24.0,0.,24.0
1979-07-27 23:12:33.520 ,0,0,0.,24.0,0.,24.0,2.,24.0,0.,24.0
1979-07-27 23:12:57.520 ,1,1,0.,24.0,0.,24.0,3.,24.0,0.,24.0
1979-07-27 23:13:21.520 ,1,0,0.,24.0,0.,24.0,4.,24.0,0.,24.0
1979-07-27 23:13:45.520 ,2,1,0.,24.0,0.,24.0,3.,24.0,0.,24.0
1979-07-27 23:14:09.520 ,2,0,1.,24.0,0.,24.0,1.,24.0,0.,24.0
1979-07-27 23:14:33.520 ,3,1,0.,24.0,0.,24.0,6.,24.0,0.,24.0
1979-07-27 23:14:57.520 ,3,0,0.,24.0,0.,24.0,1.,24.0,0.,24.0
1979-07-27 23:15:21.520 ,4,1,1.,24.0,1.,24.0,3.,24.0,0.,24.0
1979-07-27 23:15:45.520 ,4,0,1.,24.0,0.,24.0,7.,24.0,0.,24.0
1979-07-27 23:16:09.520 ,5,1,0.,24.0,0.,24.0,2.,24.0,0.,24.0
1979-07-27 23:16:33.520 ,5,0,1.,24.0,0.,24.0,3.,24.0,0.,24.0
1979-07-27 23:16:57.520 ,6,1,0.,24.0,0.,24.0,3.,24.0,0.,24.0
1979-07-27 23:17:21.520 ,6,0,0.,24.0,0.,24.0,7.,24.0,0.,24.0
1979-07-27 23:17:45.520 ,7,1,6.,24.0,0.,24.0,4.,24.0,0.,24.0
1979-07-27 23:18:09.520 ,7,0,32.,24.0,0.,24.0,4.,24.0,0.,24.0
1979-07-27 23:18:33.520 ,7,1,31.,24.0,0.,24.0,4.,24.0,0.,24.0
1979-07-27 23:18:57.520 ,7,0,25.,24.0,0.,24.0,9.,24.0,0.,24.0
1979-07-27 23:19:21.520 ,6,1,23.,24.0,0.,24.0,4.,24.0,0.,24.0
1979-07-27 23:19:45.520 ,6,0,0.,24.0,0.,24.0,5.,24.0,0.,24.0
1979-07-27 23:20:09.520 ,5,1,0.,24.0,0.,24.0,2.,24.0,0.,24.0
1979-07-27 23:20:33.520 ,5,0,0.,24.0,1.,24.0,5.,24.0,0.,24.0
1979-07-27 23:20:57.520 ,4,1,0.,24.0,0.,24.0,2.,24.0,0.,24.0
1979-07-27 23:21:21.520 ,4,0,0.,24.0,0.,24.0,3.,24.0,0.,24.0
1979-07-27 23:21:45.520 ,3,1,1.,24.0,0.,24.0,5.,24.0,0.,24.0
1979-07-27 23:22:09.520 ,3,0,0.,24.0,0.,24.0,3.,24.0,0.,24.0
1979-07-27 23:22:33.520 ,2,1,0.,24.0,0.,24.0,6.,24.0,0.,24.0
1979-07-27 23:22:57.520 ,2,0,3.,24.0,0.,24.0,6.,24.0,0.,24.0
1979-07-27 23:23:21.520 ,1,1,0.,24.0,0.,24.0,1.,24.0,0.,24.0
1979-07-27 23:23:45.520 ,1,0,0.,24.0,0.,24.0,4.,24.0,0.,24.0
1979-07-27 23:24:09.520 ,0,1,0.,24.0,1.,24.0,3.,24.0,0.,24.0
1979-07-27 23:24:33.520 ,0,0,1.,24.0,0.,24.0,3.,24.0,0.,24.0
1979-07-27 23:24:57.520 ,0,1,1.,24.0,0.,24.0,7.,24.0,0.,24.0
1979-07-27 23:25:21.520 ,0,0,0.,24.0,0.,24.0,3.,24.0,0.,24.0
1979-07-27 23:25:45.520 ,1,1,0.,24.0,0.,24.0,5.,24.0,0.,24.0
1979-07-27 23:26:09.520 ,1,0,2.,24.0,1.,24.0,4.,24.0,0.,24.0
1979-07-27 23:26:33.520 ,2,1,0.,24.0,0.,24.0,5.,24.0,0.,24.0
1979-07-27 23:26:57.520 ,2,0,2.,24.0,0.,24.0,2.,24.0,0.,24.0
1979-07-27 23:27:21.520 ,3,1,1.,24.0,0.,24.0,4.,24.0,0.,24.0
1979-07-27 23:27:45.520 ,3,0,1.,24.0,0.,24.0,5.,24.0,0.,24.0
1979-07-27 23:28:09.520 ,4,1,0.,24.0,0.,24.0,1.,24.0,0.,24.0
1979-07-27 23:28:33.520 ,4,0,0.,24.0,0.,24.0,0.,24.0,0.,24.0
1979-07-27 23:28:57.520 ,5,1,1.,24.0,0.,24.0,3.,24.0,0.,24.0
1979-07-27 23:29:21.520 ,5,0,0.,24.0,0.,24.0,3.,24.0,0.,24.0
1979-07-27 23:29:45.520 ,6,1,0.,24.0,0.,24.0,3.,24.0,0.,24.0
1979-07-27 23:30:09.520 ,6,0,0.,24.0,0.,24.0,2.,24.0,0.,24.0
1979-07-27 23:30:33.520 ,7,0,8.,24.0,0.,24.0,2.,24.0,0.,24.0
1979-07-27 23:30:57.520 ,7,0,24.,24.0,0.,24.0,4.,24.0,0.,24.0
1979-07-27 23:31:21.520 ,5,1,13.,24.0,0.,24.0,3.,24.0,0.,24.0
1979-07-27 23:31:45.520 ,1,1,2.,24.0,0.,24.0,5.,24.0,0.,24.0
1979-07-27 23:32:09.520 ,2,1,0.,24.0,0.,24.0,6.,24.0,0.,24.0
1979-07-27 23:32:33.520 ,6,1,1.,24.0,0.,24.0,4.,24.0,0.,24.0
1979-07-27 23:32:57.520 ,5,1,14.,24.0,0.,24.0,4.,24.0,0.,24.0
1979-07-27 23:33:21.520 ,1,1,0.,24.0,0.,24.0,4.,24.0,0.,24.0
1979-07-27 23:33:45.520 ,2,1,0.,24.0,0.,24.0,2.,24.0,0.,24.0
1979-07-27 23:34:09.520 ,6,1,1.,24.0,0.,24.0,2.,24.0,0.,24.0
1979-07-27 23:34:33.520 ,5,1,18.,24.0,0.,24.0,3.,24.0,0.,24.0